Time,TemperatureF,DewpointF,PressureIn,WindDirection,WindDirectionDegrees,WindSpeedMPH,WindSpeedGustMPH,Humidity,HourlyPrecipIn,Conditions,Clouds,dailyrainin,SoftwareType,DateUTC
2013-05-15 00:02:00,53.0,32.0,-100.00,WSW,255,7.0,9.0,44,-99.99,,,-99.99,,2013-05-15 06:02:00,
2013-05-15 00:11:00,53.0,32.0,-100.00,WSW,255,7.0,9.0,44,-99.99,,,-99.99,,2013-05-15 06:11:00,
2013-05-15 00:21:00,54.0,33.0,-100.00,West,265,7.0,8.0,43,-99.99,,,-99.99,,2013-05-15 06:21:00,
2013-05-15 00:32:00,55.0,33.0,-100.00,West,270,7.0,9.0,42,-99.99,,,-99.99,,2013-05-15 06:32:00,
2013-05-15 00:42:00,55.0,33.0,-100.00,West,270,7.0,9.0,42,-99.99,,,-99.99,,2013-05-15 06:42:00,
2013-05-15 00:52:00,54.0,33.0,-100.00,WSW,250,7.0,8.0,43,-99.99,,,-99.99,,2013-05-15 06:52:00,
2013-05-15 01:01:00,54.0,32.0,-100.00,West,270,7.0,9.0,43,-99.99,,,-99.99,,2013-05-15 07:01:00,
2013-05-15 01:11:00,54.0,32.0,-100.00,West,270,7.0,9.0,43,-99.99,,,-99.99,,2013-05-15 07:11:00,
2013-05-15 01:22:00,54.0,33.0,-100.00,West,265,6.0,9.0,43,-99.99,,,-99.99,,2013-05-15 07:22:00,
2013-05-15 01:32:00,54.0,32.0,-100.00,WSW,245,7.0,7.0,42,-99.99,,,-99.99,,2013-05-15 07:32:00,
2013-05-15 01:41:00,54.0,32.0,-100.00,WSW,245,7.0,7.0,42,-99.99,,,-99.99,,2013-05-15 07:41:00,
2013-05-15 01:52:00,53.0,32.0,-100.00,WSW,240,9.0,9.0,44,-99.99,,,-99.99,,2013-05-15 07:52:00,
2013-05-15 02:02:00,54.0,33.0,-100.00,West,265,6.0,9.0,43,-99.99,,,-99.99,,2013-05-15 08:02:00,
2013-05-15 02:12:00,54.0,33.0,-100.00,West,265,6.0,9.0,43,-99.99,,,-99.99,,2013-05-15 08:12:00,
2013-05-15 02:21:00,54.0,33.0,-100.00,SW,225,7.0,9.0,43,-99.99,,,-99.99,,2013-05-15 08:21:00,
2013-05-15 02:32:00,53.0,32.0,-100.00,WSW,240,9.0,9.0,44,-99.99,,,-99.99,,2013-05-15 08:32:00,
2013-05-15 02:42:00,53.0,32.0,-100.00,WSW,240,9.0,9.0,44,-99.99,,,-99.99,,2013-05-15 08:42:00,
2013-05-15 02:53:00,54.0,32.0,-100.00,WSW,240,9.0,10.0,43,-99.99,,,-99.99,,2013-05-15 08:53:00,
2013-05-15 03:01:00,54.0,32.0,-100.00,WSW,240,9.0,9.0,43,-99.99,,,-99.99,,2013-05-15 09:01:00,
2013-05-15 03:11:00,54.0,32.0,-100.00,WSW,240,9.0,9.0,43,-99.99,,,-99.99,,2013-05-15 09:11:00,
2013-05-15 03:21:00,54.0,32.0,-100.00,WSW,255,8.0,9.0,43,-99.99,,,-99.99,,2013-05-15 09:21:00,
2013-05-15 03:33:00,54.0,32.0,-100.00,WSW,255,9.0,10.0,43,-99.99,,,-99.99,,2013-05-15 09:33:00,
2013-05-15 03:42:00,54.0,32.0,-100.00,WSW,255,9.0,10.0,43,-99.99,,,-99.99,,2013-05-15 09:42:00,
2013-05-15 03:53:00,53.0,32.0,-100.00,West,260,9.0,11.0,44,-99.99,,,-99.99,,2013-05-15 09:53:00,
2013-05-15 04:02:00,53.0,32.0,-100.00,WSW,250,9.0,11.0,44,-99.99,,,-99.99,,2013-05-15 10:02:00,
2013-05-15 04:12:00,53.0,32.0,-100.00,WSW,250,9.0,11.0,44,-99.99,,,-99.99,,2013-05-15 10:12:00,
2013-05-15 04:22:00,52.0,32.0,-100.00,West,270,7.0,9.0,45,-99.99,,,-99.99,,2013-05-15 10:22:00,
2013-05-15 04:32:00,51.0,32.0,-100.00,WSW,245,9.0,11.0,47,-99.99,,,-99.99,,2013-05-15 10:32:00,
2013-05-15 04:42:00,51.0,32.0,-100.00,WSW,245,9.0,11.0,47,-99.99,,,-99.99,,2013-05-15 10:42:00,
2013-05-15 04:52:00,51.0,32.0,-100.00,WSW,250,9.0,10.0,47,-99.99,,,-99.99,,2013-05-15 10:52:00,
2013-05-15 05:10:00,52.0,32.0,-100.00,WSW,250,9.0,9.0,46,-99.99,,,-99.99,,2013-05-15 11:10:00,
2013-05-15 05:18:00,52.0,32.0,-100.00,WSW,250,9.0,9.0,46,-99.99,,,-99.99,,2013-05-15 11:18:00,
2013-05-15 05:27:00,52.0,32.0,-100.00,WSW,250,8.0,10.0,46,-99.99,,,-99.99,,2013-05-15 11:27:00,
2013-05-15 05:37:00,52.0,31.0,-100.00,West,275,6.0,9.0,45,-99.99,,,-99.99,,2013-05-15 11:37:00,
2013-05-15 05:47:00,52.0,31.0,-100.00,West,275,6.0,9.0,45,-99.99,,,-99.99,,2013-05-15 11:47:00,
2013-05-15 05:56:00,52.0,32.0,-100.00,West,260,6.0,10.0,46,-99.99,,,-99.99,,2013-05-15 11:56:00,
2013-05-15 06:08:00,53.0,32.0,-100.00,West,260,9.0,11.0,44,-99.99,,,-99.99,,2013-05-15 12:08:00,
2013-05-15 06:28:00,54.0,32.0,-100.00,West,265,7.0,10.0,44,-99.99,,,-99.99,,2013-05-15 12:28:00,
2013-05-15 06:36:00,54.0,33.0,-100.00,West,280,7.0,10.0,43,-99.99,,,-99.99,,2013-05-15 12:36:00,
2013-05-15 06:47:00,54.0,33.0,-100.00,West,280,7.0,10.0,43,-99.99,,,-99.99,,2013-05-15 12:47:00,
2013-05-15 06:54:00,54.0,33.0,-100.00,WNW,300,9.0,9.0,44,-99.99,,,-99.99,,2013-05-15 12:54:00,
2013-05-15 07:09:00,54.0,34.0,-100.00,WNW,290,7.0,9.0,46,-99.99,,,-99.99,,2013-05-15 13:09:00,
2013-05-15 07:17:00,54.0,34.0,-100.00,WNW,290,7.0,9.0,46,-99.99,,,-99.99,,2013-05-15 13:17:00,
2013-05-15 07:26:00,55.0,34.0,-100.00,WNW,290,6.0,7.0,44,-99.99,,,-99.99,,2013-05-15 13:26:00,
2013-05-15 07:36:00,56.0,34.0,-100.00,West,270,7.0,9.0,43,-99.99,,,-99.99,,2013-05-15 13:36:00,
2013-05-15 07:46:00,56.0,34.0,-100.00,West,270,7.0,9.0,43,-99.99,,,-99.99,,2013-05-15 13:46:00,
2013-05-15 07:56:00,56.0,34.0,-100.00,WSW,240,7.0,9.0,43,-99.99,,,-99.99,,2013-05-15 13:56:00,
2013-05-15 08:05:00,56.0,34.0,-100.00,WSW,245,10.0,12.0,42,-99.99,,,-99.99,,2013-05-15 14:05:00,
2013-05-15 08:14:00,56.0,34.0,-100.00,WSW,245,10.0,12.0,42,-99.99,,,-99.99,,2013-05-15 14:14:00,
2013-05-15 08:26:00,58.0,34.0,-100.00,WSW,245,11.0,14.0,40,-99.99,,,-99.99,,2013-05-15 14:26:00,
2013-05-15 08:37:00,60.0,35.0,-100.00,WSW,245,9.0,12.0,38,-99.99,,,-99.99,,2013-05-15 14:37:00,
2013-05-15 08:46:00,60.0,35.0,-100.00,WSW,245,9.0,12.0,38,-99.99,,,-99.99,,2013-05-15 14:46:00,
2013-05-15 08:53:00,61.0,35.0,-100.00,WSW,250,9.0,11.0,38,-99.99,,,-99.99,,2013-05-15 14:53:00,
2013-05-15 09:08:00,60.0,34.0,-100.00,WNW,285,12.0,13.0,36,-99.99,,,-99.99,,2013-05-15 15:08:00,
2013-05-15 09:16:00,60.0,34.0,-100.00,WNW,285,12.0,13.0,36,-99.99,,,-99.99,,2013-05-15 15:16:00,
2013-05-15 09:27:00,61.0,34.0,-100.00,WNW,285,11.0,14.0,35,-99.99,,,-99.99,,2013-05-15 15:27:00,
2013-05-15 09:36:00,63.0,35.0,-100.00,NW,305,10.0,14.0,33,-99.99,,,-99.99,,2013-05-15 15:36:00,
2013-05-15 09:47:00,63.0,35.0,-100.00,NW,305,10.0,14.0,33,-99.99,,,-99.99,,2013-05-15 15:47:00,
2013-05-15 09:57:00,64.0,35.0,-100.00,NW,305,10.0,14.0,33,-99.99,,,-99.99,,2013-05-15 15:57:00,
2013-05-15 10:10:00,65.0,34.0,-100.00,NNW,340,11.0,16.0,31,-99.99,,,-99.99,,2013-05-15 16:10:00,
2013-05-15 10:21:00,65.0,34.0,-100.00,NNW,340,11.0,16.0,31,-99.99,,,-99.99,,2013-05-15 16:21:00,
2013-05-15 10:27:00,66.0,34.0,-100.00,NW,315,9.0,15.0,30,-99.99,,,-99.99,,2013-05-15 16:27:00,
2013-05-15 10:36:00,66.0,32.0,-100.00,NW,310,14.0,19.0,28,-99.99,,,-99.99,,2013-05-15 16:36:00,
2013-05-15 10:47:00,66.0,32.0,-100.00,NW,310,14.0,19.0,28,-99.99,,,-99.99,,2013-05-15 16:47:00,
2013-05-15 10:53:00,67.0,33.0,-100.00,NNW,330,12.0,17.0,27,-99.99,,,-99.99,,2013-05-15 16:53:00,
2013-05-15 11:09:00,68.0,31.0,-100.00,NNW,330,13.0,18.0,25,-99.99,,,-99.99,,2013-05-15 17:09:00,
2013-05-15 11:18:00,68.0,31.0,-100.00,NNW,330,13.0,18.0,25,-99.99,,,-99.99,,2013-05-15 17:18:00,
2013-05-15 11:27:00,69.0,31.0,-100.00,WNW,285,15.0,22.0,24,-99.99,,,-99.99,,2013-05-15 17:27:00,
2013-05-15 11:36:00,69.0,30.0,-100.00,NNW,340,11.0,21.0,23,-99.99,,,-99.99,,2013-05-15 17:36:00,
2013-05-15 11:45:00,69.0,30.0,-100.00,NNW,340,11.0,21.0,23,-99.99,,,-99.99,,2013-05-15 17:45:00,
2013-05-15 11:56:00,69.0,30.0,-100.00,NW,320,11.0,18.0,23,-99.99,,,-99.99,,2013-05-15 17:56:00,
2013-05-15 12:15:00,70.0,30.0,-100.00,WNW,290,9.0,15.0,22,-99.99,,,-99.99,,2013-05-15 18:15:00,
2013-05-15 12:26:00,69.0,30.0,-100.00,WNW,295,6.0,17.0,22,-99.99,,,-99.99,,2013-05-15 18:26:00,
2013-05-15 12:37:00,70.0,30.0,-100.00,WNW,300,9.0,22.0,22,-99.99,,,-99.99,,2013-05-15 18:37:00,
2013-05-15 12:46:00,70.0,30.0,-100.00,WNW,300,9.0,22.0,22,-99.99,,,-99.99,,2013-05-15 18:46:00,
2013-05-15 12:54:00,71.0,30.0,-100.00,WNW,295,17.0,22.0,21,-99.99,,,-99.99,,2013-05-15 18:54:00,
2013-05-15 13:15:00,71.0,29.0,-100.00,NW,305,4.0,21.0,21,-99.99,,,-99.99,,2013-05-15 19:15:00,
2013-05-15 13:29:00,70.0,29.0,-100.00,NNW,340,12.0,24.0,21,-99.99,,,-99.99,,2013-05-15 19:29:00,
2013-05-15 13:37:00,72.0,30.0,-100.00,WNW,295,5.0,17.0,21,-99.99,,,-99.99,,2013-05-15 19:37:00,
2013-05-15 13:45:00,72.0,30.0,-100.00,WNW,295,5.0,17.0,21,-99.99,,,-99.99,,2013-05-15 19:45:00,
2013-05-15 13:54:00,72.0,29.0,-100.00,WNW,285,7.0,23.0,20,-99.99,,,-99.99,,2013-05-15 19:54:00,
2013-05-15 14:08:00,71.0,30.0,-100.00,WNW,300,13.0,24.0,21,-99.99,,,-99.99,,2013-05-15 20:08:00,
2013-05-15 14:28:00,72.0,30.0,-100.00,WNW,290,17.0,21.0,21,-99.99,,,-99.99,,2013-05-15 20:28:00,
2013-05-15 14:38:00,71.0,29.0,-100.00,NW,315,14.0,23.0,20,-99.99,,,-99.99,,2013-05-15 20:38:00,
2013-05-15 14:46:00,71.0,29.0,-100.00,NW,315,14.0,23.0,20,-99.99,,,-99.99,,2013-05-15 20:46:00,
2013-05-15 14:53:00,73.0,30.0,-100.00,WNW,285,12.0,21.0,20,-99.99,,,-99.99,,2013-05-15 20:53:00,
2013-05-15 15:07:00,72.0,29.0,-100.00,NW,315,12.0,19.0,20,-99.99,,,-99.99,,2013-05-15 21:07:00,
2013-05-15 15:19:00,72.0,29.0,-100.00,NW,315,12.0,19.0,20,-99.99,,,-99.99,,2013-05-15 21:19:00,
2013-05-15 15:27:00,73.0,30.0,-100.00,NW,315,18.0,25.0,20,-99.99,,,-99.99,,2013-05-15 21:27:00,
2013-05-15 15:40:00,72.0,30.0,-100.00,NW,320,10.0,18.0,21,-99.99,,,-99.99,,2013-05-15 21:40:00,
2013-05-15 15:49:00,72.0,30.0,-100.00,NW,320,10.0,18.0,21,-99.99,,,-99.99,,2013-05-15 21:49:00,
2013-05-15 15:56:00,72.0,30.0,-100.00,NNW,330,12.0,16.0,21,-99.99,,,-99.99,,2013-05-15 21:56:00,
2013-05-15 16:10:00,72.0,29.0,-100.00,NW,305,7.0,20.0,20,-99.99,,,-99.99,,2013-05-15 22:10:00,
2013-05-15 16:18:00,72.0,29.0,-100.00,NW,305,7.0,20.0,20,-99.99,,,-99.99,,2013-05-15 22:18:00,
2013-05-15 16:28:00,72.0,30.0,-100.00,North,355,9.0,17.0,21,-99.99,,,-99.99,,2013-05-15 22:28:00,
2013-05-15 16:48:00,72.0,30.0,-100.00,North,350,11.0,16.0,21,-99.99,,,-99.99,,2013-05-15 22:48:00,
2013-05-15 16:54:00,72.0,29.0,-100.00,NNW,330,9.0,16.0,20,-99.99,,,-99.99,,2013-05-15 22:54:00,
2013-05-15 17:07:00,72.0,30.0,-100.00,NW,325,12.0,18.0,20,-99.99,,,-99.99,,2013-05-15 23:07:00,
2013-05-15 17:15:00,72.0,30.0,-100.00,NW,325,12.0,18.0,20,-99.99,,,-99.99,,2013-05-15 23:15:00,
2013-05-15 17:27:00,73.0,30.0,-100.00,WNW,295,12.0,16.0,20,-99.99,,,-99.99,,2013-05-15 23:27:00,
2013-05-15 17:38:00,72.0,29.0,-100.00,North,0,4.0,17.0,20,-99.99,,,-99.99,,2013-05-15 23:38:00,
2013-05-15 17:54:00,73.0,30.0,-100.00,NW,315,10.0,13.0,20,-99.99,,,-99.99,,2013-05-15 23:54:00,
2013-05-15 18:06:00,72.0,30.0,-100.00,NW,315,7.0,15.0,21,-99.99,,,-99.99,,2013-05-16 00:06:00,
2013-05-15 18:17:00,72.0,30.0,-100.00,NW,315,7.0,15.0,21,-99.99,,,-99.99,,2013-05-16 00:17:00,
2013-05-15 18:26:00,73.0,31.0,-100.00,North,0,5.0,10.0,21,-99.99,,,-99.99,,2013-05-16 00:26:00,
2013-05-15 18:35:00,72.0,30.0,-100.00,NNW,340,9.0,15.0,20,-99.99,,,-99.99,,2013-05-16 00:35:00,
2013-05-15 18:49:00,72.0,30.0,-100.00,NNW,340,9.0,15.0,20,-99.99,,,-99.99,,2013-05-16 00:49:00,
2013-05-15 18:54:00,72.0,30.0,-100.00,NNW,335,6.0,12.0,21,-99.99,,,-99.99,,2013-05-16 00:54:00,
2013-05-15 19:07:00,71.0,30.0,-100.00,North,350,6.0,11.0,22,-99.99,,,-99.99,,2013-05-16 01:07:00,
2013-05-15 19:16:00,71.0,30.0,-100.00,North,350,6.0,11.0,22,-99.99,,,-99.99,,2013-05-16 01:16:00,
2013-05-15 19:36:00,70.0,31.0,-100.00,North,10,6.0,8.0,23,-99.99,,,-99.99,,2013-05-16 01:36:00,
2013-05-15 19:48:00,70.0,31.0,-100.00,North,10,6.0,8.0,23,-99.99,,,-99.99,,2013-05-16 01:48:00,
2013-05-15 19:56:00,69.0,32.0,-100.00,NNE,15,6.0,7.0,25,-99.99,,,-99.99,,2013-05-16 01:56:00,
2013-05-15 20:07:00,64.0,32.0,-100.00,North,5,5.0,6.0,30,-99.99,,,-99.99,,2013-05-16 02:07:00,
2013-05-15 20:16:00,64.0,32.0,-100.00,North,5,5.0,6.0,30,-99.99,,,-99.99,,2013-05-16 02:16:00,
2013-05-15 20:27:00,63.0,32.0,-100.00,NNE,15,5.0,6.0,31,-99.99,,,-99.99,,2013-05-16 02:27:00,
2013-05-15 20:37:00,61.0,33.0,-100.00,NNE,25,6.0,7.0,33,-99.99,,,-99.99,,2013-05-16 02:37:00,
2013-05-15 20:46:00,61.0,33.0,-100.00,NNE,25,6.0,7.0,33,-99.99,,,-99.99,,2013-05-16 02:46:00,
2013-05-15 20:54:00,61.0,33.0,-100.00,NNE,25,6.0,7.0,33,-99.99,,,-99.99,,2013-05-16 02:54:00,
2013-05-15 21:07:00,60.0,32.0,-100.00,NNE,20,4.0,7.0,34,-99.99,,,-99.99,,2013-05-16 03:07:00,
2013-05-15 21:16:00,60.0,32.0,-100.00,NNE,20,4.0,7.0,34,-99.99,,,-99.99,,2013-05-16 03:16:00,
2013-05-15 21:25:00,60.0,32.0,-100.00,NNE,20,4.0,6.0,34,-99.99,,,-99.99,,2013-05-16 03:25:00,
2013-05-15 21:37:00,59.0,31.0,-100.00,NNE,15,6.0,6.0,34,-99.99,,,-99.99,,2013-05-16 03:37:00,
2013-05-15 21:45:00,59.0,31.0,-100.00,NNE,15,6.0,6.0,34,-99.99,,,-99.99,,2013-05-16 03:45:00,
2013-05-15 21:54:00,58.0,31.0,-100.00,NNE,30,4.0,6.0,35,-99.99,,,-99.99,,2013-05-16 03:54:00,
2013-05-15 22:02:00,57.0,31.0,-100.00,NNE,20,6.0,7.0,36,-99.99,,,-99.99,,2013-05-16 04:02:00,
2013-05-15 22:12:00,57.0,31.0,-100.00,NNE,20,6.0,7.0,36,-99.99,,,-99.99,,2013-05-16 04:12:00,
2013-05-15 22:23:00,57.0,31.0,-100.00,NNE,25,6.0,6.0,36,-99.99,,,-99.99,,2013-05-16 04:23:00,
2013-05-15 22:33:00,56.0,31.0,-100.00,NNE,20,0.0,2.0,37,-99.99,,,-99.99,,2013-05-16 04:33:00,
2013-05-15 22:42:00,56.0,31.0,-100.00,NNE,20,0.0,2.0,37,-99.99,,,-99.99,,2013-05-16 04:42:00,
2013-05-15 22:53:00,54.0,30.0,-100.00,SE,140,0.0,2.0,39,-99.99,,,-99.99,,2013-05-16 04:53:00,
2013-05-15 23:02:00,55.0,31.0,-100.00,SSE,155,0.0,2.0,40,-99.99,,,-99.99,,2013-05-16 05:02:00,
2013-05-15 23:12:00,55.0,31.0,-100.00,SSE,155,0.0,2.0,40,-99.99,,,-99.99,,2013-05-16 05:12:00,
2013-05-15 23:22:00,55.0,31.0,-100.00,SSW,200,0.0,2.0,40,-99.99,,,-99.99,,2013-05-16 05:22:00,
2013-05-15 23:32:00,55.0,32.0,-100.00,SSE,165,1.0,2.0,41,-99.99,,,-99.99,,2013-05-16 05:32:00,
2013-05-15 23:42:00,55.0,32.0,-100.00,SSE,165,1.0,2.0,41,-99.99,,,-99.99,,2013-05-16 05:42:00,
2013-05-15 23:52:00,53.0,32.0,-100.00,ENE,75,0.0,2.0,44,-99.99,,,-99.99,,2013-05-16 05:52:00,